Charleston, WV

4:30 PM EDT on April 28, 2017 (GMT -0400)
Yeager Airport

Weather History for KCRW - December, 2013

Change the Weather History Date:

Thursday, December 19, 2013

  Actual Average Record
Temperature  
Mean Temperature 43 °F 36 °F  
Max Temperature 61 °F 44 °F 68 °F (1924)
Min Temperature 25 °F 28 °F 5 °F (1916)
Degree Days  
Heating Degree Days 22 29  
Month to date heating degree days 505 500  
Since 1 July heating degree days 1462 1384  
Cooling Degree Days 0 0  
Month to date cooling degree days 0 0  
Year to date cooling degree days 1121 1096  
Moisture  
Dew Point 26 °F    
Average Humidity 58    
Maximum Humidity 92    
Minimum Humidity 23    
Precipitation  
Precipitation 0.00 in 0.10 in 0.89 in (2009)
Month to date precipitation 4.16 2.06  
Year to date precipitation 45.13 42.82  
Snow  
Snow 0.00 in - - ()
Month to date snowfall 2.4  
Since 1 September snowfall 5.9  
Snow Depth 0.00 in    
Sea Level Pressure  
Sea Level Pressure 30.14 in    
Wind  
Wind Speed 4 mph (SW)    
Max Wind Speed 21 mph    
Max Gust Speed 30 mph    
Visibility 10 miles    
Events      
T = Trace of Precipitation, MM = Missing Value Source: NWS Daily Summary

Daily Weather History Graph

Daily Weather History Graph

Search for Another Location

Airport or City:

Trip Planner

Search our weather history database for the weather conditions in past years. The results will help you decide how hot, cold, wet, or windy it might be!

Date:

Astronomy

Dec. 19, 2013 Rise Set
Actual Time 7:38 AM EST 5:08 PM EST
Civil Twilight 7:09 AM EST 5:38 PM EST
Nautical Twilight 6:35 AM EST 6:11 PM EST
Astronomical Twilight 6:03 AM EST 6:43 PM EST
Moon 7:31 PM EST (12/19) 8:58 AM EST (12/19)
Length of Visible Light 10h 29m
Length of Day
9h 29m
Waning Gibbous, 95% of the Moon is Illuminated
Dec 19
Waning Gibbous
Dec 25
Last Quarter
Jan 1
New
Jan 7
First Quarter
Jan 15
Full

Hourly Weather History & Observations

Time (EST) Temp. Windchill Dew Point Humidity Pressure Visibility Wind Dir Wind Speed Gust Speed Precip Events Conditions
12:54 AM 27.0 °F - 24.1 °F 89% 30.15 in 10.0 mi Calm Calm - N/A   Clear
1:54 AM 27.0 °F 23.0 °F 24.1 °F 89% 30.14 in 10.0 mi NNE 3.5 mph - N/A   Clear
2:54 AM 28.9 °F - 23.0 °F 78% 30.13 in 10.0 mi Calm Calm - N/A   Clear
3:54 AM 30.9 °F - 23.0 °F 72% 30.14 in 10.0 mi Calm Calm - N/A   Clear
4:54 AM 33.1 °F 28.7 °F 24.1 °F 70% 30.14 in 10.0 mi WSW 4.6 mph - N/A   Clear
5:54 AM 42.1 °F 39.2 °F 23.0 °F 47% 30.15 in 10.0 mi WSW 4.6 mph - N/A   Mostly Cloudy
6:54 AM 32.0 °F 28.7 °F 25.0 °F 75% 30.17 in 10.0 mi SSE 3.5 mph - N/A   Mostly Cloudy
7:54 AM 30.0 °F - 24.1 °F 79% 30.19 in 10.0 mi Calm Calm - N/A   Scattered Clouds
8:54 AM 35.1 °F - 27.0 °F 72% 30.20 in 10.0 mi Calm Calm - N/A   Scattered Clouds
9:54 AM 43.0 °F - 30.9 °F 62% 30.21 in 10.0 mi Calm Calm - N/A   Scattered Clouds
10:54 AM 53.1 °F - 26.1 °F 35% 30.21 in 10.0 mi SW 9.2 mph - N/A   Scattered Clouds
11:54 AM 57.0 °F - 23.0 °F 27% 30.19 in 10.0 mi SW 12.7 mph 21.9 mph N/A   Scattered Clouds
12:54 PM 59.0 °F - 21.9 °F 24% 30.16 in 10.0 mi WSW 17.3 mph 24.2 mph N/A   Scattered Clouds
1:54 PM 60.1 °F - 23.0 °F 24% 30.13 in 10.0 mi WSW 15.0 mph 20.7 mph N/A   Scattered Clouds
2:54 PM 59.0 °F - 21.9 °F 24% 30.12 in 10.0 mi WSW 9.2 mph 20.7 mph N/A   Overcast
3:54 PM 57.9 °F - 24.1 °F 27% 30.12 in 10.0 mi West 3.5 mph - N/A   Overcast
4:54 PM 55.9 °F - 25.0 °F 30% 30.12 in 10.0 mi South 5.8 mph - N/A   Mostly Cloudy
5:54 PM 53.1 °F - 27.0 °F 37% 30.10 in 10.0 mi Calm Calm - N/A   Mostly Cloudy
6:54 PM 50.0 °F - 28.9 °F 44% 30.11 in 10.0 mi Calm Calm - N/A   Mostly Cloudy
7:54 PM 48.0 °F - 30.0 °F 50% 30.10 in 10.0 mi Calm Calm - N/A   Mostly Cloudy
8:54 PM 46.0 °F - 32.0 °F 58% 30.09 in 10.0 mi Calm Calm - N/A   Overcast
9:54 PM 46.0 °F - 30.9 °F 56% 30.09 in 10.0 mi Calm Calm - N/A   Mostly Cloudy
10:54 PM 42.1 °F - 32.0 °F 67% 30.07 in 10.0 mi Calm Calm - N/A   Mostly Cloudy
11:54 PM 44.1 °F - 30.9 °F 60% 30.06 in 10.0 mi Calm Calm - N/A   Mostly Cloudy